CW4427 Weather Reports


Display with metric or nautical units.
time (UTC)temp
F
wind
direction
speed
MPH
gust
MPH
rain 1hr
in
rain 24hr
in
rain mn
in
humidity
%
barometer
mb
20260905042344 85 164 0.0 0.0 0.00 0.00 0.00 69 1013.5
20260905041844 85 164 0.0 2.0 0.00 0.00 0.00 68 1013.5
20260905041344 86 164 0.0 3.0 0.00 0.00 0.00 67 1013.4
20260905040345 86 167 0.0 3.0 0.00 0.00 0.00 66 1013.4
20260905035344 87 215 1.0 4.0 0.00 0.00 0.00 65 1013.5
20260905034844 87 202 1.0 4.0 0.00 0.00 0.00 65 1013.4
20260905033845 87 148 2.0 4.0 0.00 0.00 0.00 65 1013.6
20260905033344 86 187 0.0 3.0 0.00 0.00 0.00 66 1013.6
20260905032845 86 194 1.0 1.0 0.00 0.00 0.00 66 1013.5
20260905032344 85 194 0.0 0.0 0.00 0.00 0.00 67 1013.4
20260905031844 85 194 0.0 0.0 0.00 0.00 0.00 67 1013.5
20260905031344 86 194 0.0 0.0 0.00 0.00 0.00 66 1013.6
20260905030844 86 194 0.0 0.0 0.00 0.00 0.00 66 1013.6
20260905030344 86 194 0.0 0.0 0.00 0.00 0.00 65 1013.6
20260905025844 87 194 0.0 3.0 0.00 0.00 0.00 64 1013.6
20260905025345 87 194 0.0 3.0 0.00 0.00 0.00 63 1013.5
20260905024844 87 166 0.0 0.0 0.00 0.00 0.00 64 1013.4
20260905024344 87 166 0.0 0.0 0.00 0.00 0.00 64 1013.3
20260905023844 88 166 0.0 0.0 0.00 0.00 0.00 63 1013.4
20260905022844 88 132 0.0 4.0 0.00 0.00 0.00 62 1013.4
20260905022344 87 229 0.0 3.0 0.00 0.00 0.00 64 1013.3
20260905021844 87 128 1.0 3.0 0.00 0.00 0.00 64 1013.3
20260905021344 87 153 0.0 4.0 0.00 0.00 0.00 64 1013.3
20260905020844 86 148 2.0 4.0 0.00 0.00 0.00 65 1013.2
20260905020344 85 99 0.0 0.0 0.00 0.00 0.00 69 1013.3
20260905015844 85 99 0.0 0.0 0.00 0.00 0.00 69 1013.0
20260905015344 86 99 0.0 0.0 0.00 0.00 0.00 68 1013.0
20260905014844 86 99 0.0 0.0 0.00 0.00 0.00 66 1013.0
20260905014344 86 99 0.0 0.0 0.00 0.00 0.00 65 1012.8
20260905013844 86 99 0.0 0.0 0.00 0.00 0.00 66 1012.9
20260905012844 87 99 0.0 0.0 0.00 0.00 0.00 65 1012.9
20260905012344 87 99 0.0 0.0 0.00 0.00 0.00 63 1012.9
20260905011845 87 99 0.0 0.0 0.00 0.00 0.00 63 1012.9
20260905011344 87 99 0.0 0.0 0.00 0.00 0.00 63 1012.9
20260905010844 87 99 0.0 0.0 0.00 0.00 0.00 63 1013.0
20260905010344 88 99 0.0 0.0 0.00 0.00 0.00 62 1012.9
20260905005844 88 99 0.0 0.0 0.00 0.00 0.00 63 1012.8
20260905004844 88 99 0.0 0.0 0.00 0.00 0.00 62 1012.7
20260905004344 89 99 0.0 0.0 0.00 0.00 0.00 61 1012.7
20260905003844 89 99 0.0 0.0 0.00 0.00 0.00 60 1012.6
20260905003344 89 99 0.0 0.0 0.00 0.00 0.00 60 1012.6
20260905002844 90 99 0.0 0.0 0.00 0.00 0.00 59 1012.6
20260905002344 90 99 0.0 0.0 0.00 0.00 0.00 58 1012.6
20260905000844 91 99 0.0 0.0 0.00 0.00 0.00 57 1012.5
20260905000344 91 99 0.0 0.0 0.00 0.00 0.00 57 1012.3
20260904235843 92 99 0.0 0.0 0.00 0.00 0.00 56 1012.3
20260904235343 92 99 0.0 0.0 0.00 0.00 0.00 55 1012.2
20260904234844 93 99 0.0 0.0 0.00 0.00 0.00 55 1012.2
20260904234344 93 99 0.0 0.0 0.00 0.00 0.00 54 1012.2
20260904233844 94 99 0.0 0.0 0.00 0.00 0.00 54 1012.2
20260904233344 94 99 0.0 1.0 0.00 0.00 0.00 52 1012.2
20260904232843 95 99 0.0 3.0 0.00 0.00 0.00 51 1012.2
20260904232344 96 99 0.0 3.0 0.00 0.00 0.00 51 1012.1
20260904231843 96 140 1.0 3.0 0.00 0.00 0.00 47 1012.1
20260904231344 96 91 0.0 3.0 0.00 0.00 0.00 49 1012.1
20260904230843 97 89 2.0 3.0 0.00 0.00 0.00 49 1012.2
20260904225844 98 36 1.0 4.0 0.00 0.00 0.00 44 1012.2
20260904225345 98 50 1.0 4.0 0.00 0.00 0.00 44 1012.3
20260904224344 98 91 0.0 4.0 0.00 0.00 0.00 44 1012.1
20260904223344 99 66 0.0 7.0 0.00 0.00 0.00 43 1012.1
20260904222844 99 325 1.0 6.0 0.00 0.00 0.00 43 1012.1
20260904222344 99 5 1.0 7.0 0.00 0.00 0.00 41 1012.2
20260904221843 99 36 1.0 7.0 0.00 0.00 0.00 41 1012.2
20260904221344 99 355 4.0 7.0 0.00 0.00 0.00 42 1012.1
20260904220843 99 98 0.0 6.0 0.00 0.00 0.00 42 1012.1
20260904220344 99 15 2.0 6.0 0.00 0.00 0.00 42 1012.1
20260904215844 99 38 3.0 5.0 0.00 0.00 0.00 42 1012.2
20260904215343 99 24 3.0 6.0 0.00 0.00 0.00 42 1012.3
20260904214843 100 86 0.0 6.0 0.00 0.00 0.00 42 1012.2
20260904214343 99 36 5.0 7.0 0.00 0.00 0.00 41 1012.3
20260904213844 100 346 3.0 7.0 0.00 0.00 0.00 41 1012.4
20260904212843 100 11 0.0 9.0 0.00 0.00 0.00 41 1012.4
20260904212343 100 29 3.0 9.0 0.00 0.00 0.00 40 1012.5
20260904211843 100 331 2.0 4.0 0.00 0.00 0.00 40 1012.5
20260904211344 100 37 2.0 8.0 0.00 0.00 0.00 41 1012.5
20260904210844 99 42 4.0 10.0 0.00 0.00 0.00 40 1012.6
20260904210344 99 107 7.0 10.0 0.00 0.00 0.00 41 1012.6
20260904205843 100 26 5.0 5.0 0.00 0.00 0.00 42 1012.7
20260904205343 99 308 2.0 3.0 0.00 0.00 0.00 43 1012.7
20260904204843 99 337 2.0 4.0 0.00 0.00 0.00 45 1012.8
20260904204343 99 90 3.0 4.0 0.00 0.00 0.00 43 1013.0
20260904203843 99 106 1.0 6.0 0.00 0.00 0.00 42 1012.9
20260904203343 98 80 1.0 6.0 0.00 0.00 0.00 43 1013.1
20260904202843 99 94 6.0 6.0 0.00 0.00 0.00 45 1013.2
20260904202344 100 43 3.0 7.0 0.00 0.00 0.00 42 1013.3
20260904201843 99 162 2.0 7.0 0.00 0.00 0.00 44 1013.3
20260904201343 100 100 2.0 7.0 0.00 0.00 0.00 46 1013.3
20260904200843 101 49 4.0 4.0 0.00 0.00 0.00 46 1013.4
20260904200343 99 204 0.0 4.0 0.00 0.00 0.00 49 1013.5
20260904195843 98 19 2.0 3.0 0.00 0.00 0.00 48 1013.6
20260904195343 97 139 0.0 3.0 0.00 0.00 0.00 52 1013.8
20260904194843 97 103 1.0 3.0 0.00 0.00 0.00 50 1013.8
20260904194343 96 55 0.0 2.0 0.00 0.00 0.00 53 1013.9
20260904193843 97 33 0.0 3.0 0.00 0.00 0.00 50 1014.0
20260904193343 97 338 0.0 4.0 0.00 0.00 0.00 48 1014.0
20260904192844 97 42 1.0 5.0 0.00 0.00 0.00 48 1014.2
20260904192343 98 105 2.0 5.0 0.00 0.00 0.00 46 1014.3
20260904191843 98 242 0.0 5.0 0.00 0.00 0.00 46 1014.3
20260904191343 99 117 2.0 5.0 0.00 0.00 0.00 44 1014.3
20260904190343 100 249 1.0 8.0 0.00 0.00 0.00 46 1014.4
20260904185844 101 47 4.0 6.0 0.00 0.00 0.00 45 1014.5
20260904185343 101 284 3.0 5.0 0.00 0.00 0.00 47 1014.6
20260904184843 99 197 0.0 6.0 0.00 0.00 0.00 44 1014.6
20260904183843 101 184 6.0 7.0 0.00 0.00 0.00 45 1014.9
20260904182843 100 193 3.0 4.0 0.00 0.00 0.00 45 1015.0
20260904182343 99 321 1.0 4.0 0.00 0.00 0.00 47 1015.0
20260904181842 99 310 1.0 4.0 0.00 0.00 0.00 50 1015.0
20260904181343 98 34 1.0 8.0 0.00 0.00 0.00 49 1015.0
20260904180842 97 49 0.0 8.0 0.00 0.00 0.00 50 1015.1
20260904180342 97 208 2.0 7.0 0.00 0.00 0.00 48 1015.3
20260904174343 96 108 4.0 9.0 0.00 0.00 0.00 51 1015.5
20260904173842 97 109 7.0 7.0 0.00 0.00 0.00 54 1015.6
20260904173343 96 120 2.0 6.0 0.00 0.00 0.00 51 1015.6
20260904172842 97 13 1.0 6.0 0.00 0.00 0.00 52 1015.7
20260904172342 98 287 2.0 5.0 0.00 0.00 0.00 54 1015.7
20260904171842 96 5 3.0 8.0 0.00 0.00 0.00 53 1015.8
20260904171342 96 42 4.0 8.0 0.00 0.00 0.00 55 1015.8
20260904170842 96 19 7.0 8.0 0.00 0.00 0.00 53 1015.9
20260904170342 97 34 3.0 6.0 0.00 0.00 0.00 55 1015.9
20260904165842 97 300 1.0 5.0 0.00 0.00 0.00 55 1015.9
20260904164842 95 95 4.0 7.0 0.00 0.00 0.00 54 1016.0
20260904164342 97 24 3.0 5.0 0.00 0.00 0.00 52 1016.1
20260904163842 97 248 2.0 4.0 0.00 0.00 0.00 54 1016.1
20260904163342 96 253 2.0 4.0 0.00 0.00 0.00 53 1016.0
20260904162842 95 114 0.0 4.0 0.00 0.00 0.00 52 1016.1
20260904162342 97 340 3.0 7.0 0.00 0.00 0.00 55 1016.3
20260904161342 95 355 0.0 8.0 0.00 0.00 0.00 56 1016.2
20260904160842 96 355 3.0 8.0 0.00 0.00 0.00 57 1016.2
20260904160342 94 29 1.0 7.0 0.00 0.00 0.00 59 1016.2
20260904155842 94 132 3.0 7.0 0.00 0.00 0.00 56 1016.2
20260904155342 95 35 2.0 4.0 0.00 0.00 0.00 56 1016.4
20260904154842 95 32 2.0 4.0 0.00 0.00 0.00 56 1016.3
20260904154342 95 355 1.0 4.0 0.00 0.00 0.00 57 1016.4
20260904153342 94 277 0.0 4.0 0.00 0.00 0.00 57 1016.2
20260904152842 95 271 1.0 4.0 0.00 0.00 0.00 55 1016.4
20260904152342 94 247 4.0 4.0 0.00 0.00 0.00 61 1016.2
20260904151842 94 113 0.0 4.0 0.00 0.00 0.00 56 1016.2
20260904150842 94 290 1.0 4.0 0.00 0.00 0.00 59 1016.0
20260904150342 93 315 0.0 4.0 0.00 0.00 0.00 60 1016.1
20260904145842 93 292 2.0 4.0 0.00 0.00 0.00 62 1016.1
20260904145341 92 266 3.0 3.0 0.00 0.00 0.00 63 1015.9
20260904144842 91 360 1.0 4.0 0.00 0.00 0.00 62 1016.0
20260904144341 91 336 1.0 4.0 0.00 0.00 0.00 62 1016.2
20260904143841 92 302 1.0 3.0 0.00 0.00 0.00 64 1016.1
20260904143342 90 286 2.0 3.0 0.00 0.00 0.00 64 1016.1
20260904142841 91 267 1.0 4.0 0.00 0.00 0.00 67 1016.0
20260904141842 91 281 4.0 4.0 0.00 0.00 0.00 67 1016.1
20260904141342 90 325 0.0 3.0 0.00 0.00 0.00 70 1015.9
20260904135841 89 292 2.0 3.0 0.00 0.00 0.00 70 1016.0
20260904135342 89 283 1.0 2.0 0.00 0.00 0.00 71 1016.0
20260904134342 86 280 0.0 0.0 0.00 0.00 0.00 74 1015.9
20260904133842 86 280 0.0 0.0 0.00 0.00 0.00 77 1015.9
20260904133342 85 280 0.0 1.0 0.00 0.00 0.00 78 1015.9
20260904132842 84 280 0.0 1.0 0.00 0.00 0.00 80 1015.8
20260904132342 84 280 0.0 0.0 0.00 0.00 0.00 82 1015.8
20260904131841 83 280 0.0 0.0 0.00 0.00 0.00 82 1015.7
20260904131341 83 280 0.0 0.0 0.00 0.00 0.00 82 1015.6
20260904130842 82 280 0.0 0.0 0.00 0.00 0.00 84 1015.8
20260904130341 81 280 0.0 0.0 0.00 0.00 0.00 85 1015.8
20260904125841 80 280 0.0 0.0 0.00 0.00 0.00 86 1015.8
20260904125341 80 280 0.0 0.0 0.00 0.00 0.00 87 1015.7
20260904124841 79 280 0.0 0.0 0.00 0.00 0.00 88 1015.6
20260904124342 79 280 0.0 0.0 0.00 0.00 0.00 90 1015.5
20260904123841 78 280 0.0 0.0 0.00 0.00 0.00 90 1015.5
20260904123342 77 280 0.0 0.0 0.00 0.00 0.00 90 1015.4
20260904122341 77 280 0.0 0.0 0.00 0.00 0.00 91 1015.4
20260904121841 76 280 0.0 0.0 0.00 0.00 0.00 91 1015.3
20260904121341 76 280 0.0 0.0 0.00 0.00 0.00 92 1015.3
20260904120841 76 280 0.0 0.0 0.00 0.00 0.00 92 1015.2
20260904120341 76 280 0.0 0.0 0.00 0.00 0.00 92 1015.2
20260904115841 76 280 0.0 0.0 0.00 0.00 0.00 92 1015.2
20260904115341 76 280 0.0 0.0 0.00 0.00 0.00 92 1015.1
20260904114841 76 280 0.0 0.0 0.00 0.00 0.00 92 1015.0
20260904114341 76 280 0.0 0.0 0.00 0.00 0.00 91 1014.9
20260904113341 76 280 0.0 0.0 0.00 0.00 0.00 91 1014.7
20260904112841 76 280 0.0 0.0 0.00 0.00 0.00 91 1014.7
20260904111841 76 280 0.0 0.0 0.00 0.00 0.00 92 1014.7
20260904111341 76 280 0.0 0.0 0.00 0.00 0.00 92 1014.7
20260904110841 75 280 0.0 0.0 0.00 0.00 0.00 92 1014.7
20260904110341 75 280 0.0 0.0 0.00 0.00 0.00 92 1014.7
20260904105841 75 280 0.0 0.0 0.00 0.00 0.00 92 1014.7
20260904105341 75 280 0.0 0.0 0.00 0.00 0.00 92 1014.7
20260904104841 75 280 0.0 0.0 0.00 0.00 0.00 92 1014.7
20260904103841 76 280 0.0 0.0 0.00 0.00 0.00 92 1014.7
20260904103341 76 280 0.0 0.0 0.00 0.00 0.00 91 1014.6
20260904102841 76 280 0.0 0.0 0.00 0.00 0.00 92 1014.7
20260904102341 76 280 0.0 0.0 0.00 0.00 0.00 92 1014.6
20260904101841 75 280 0.0 0.0 0.00 0.00 0.00 91 1014.6
20260904101341 76 280 0.0 0.0 0.00 0.00 0.00 91 1014.6
20260904100841 76 280 0.0 0.0 0.00 0.00 0.00 92 1014.5
20260904100341 76 280 0.0 0.0 0.00 0.00 0.00 91 1014.4
20260904095841 76 280 0.0 0.0 0.00 0.00 0.00 91 1014.4
20260904095341 76 280 0.0 0.0 0.00 0.00 0.00 91 1014.4
20260904094841 76 280 0.0 0.0 0.00 0.00 0.00 91 1014.4
20260904094341 76 280 0.0 0.0 0.00 0.00 0.00 91 1014.4
20260904093841 76 280 0.0 0.0 0.00 0.00 0.00 91 1014.4
20260904093341 76 280 0.0 0.0 0.00 0.00 0.00 91 1014.3
20260904092841 76 280 0.0 0.0 0.00 0.00 0.00 91 1014.3
20260904092341 76 280 0.0 0.0 0.00 0.00 0.00 90 1014.3
20260904091841 76 280 0.0 0.0 0.00 0.00 0.00 90 1014.2
20260904091341 76 280 0.0 0.0 0.00 0.00 0.00 90 1014.1
20260904090841 76 280 0.0 0.0 0.00 0.00 0.00 90 1014.3
20260904090341 76 280 0.0 0.0 0.00 0.00 0.00 90 1014.2
20260904085341 76 280 0.0 0.0 0.00 0.00 0.00 90 1014.2
20260904084341 77 280 0.0 0.0 0.00 0.00 0.00 90 1014.0
20260904083841 77 280 0.0 0.0 0.00 0.00 0.00 89 1014.0
20260904083341 77 280 0.0 0.0 0.00 0.00 0.00 89 1014.0
20260904082841 77 280 0.0 0.0 0.00 0.00 0.00 89 1014.0
20260904082341 77 280 0.0 0.0 0.00 0.00 0.00 89 1014.0
20260904081340 77 280 0.0 0.0 0.00 0.00 0.00 89 1013.9
20260904080842 77 280 0.0 0.0 0.00 0.00 0.00 89 1014.0
20260904080340 77 280 0.0 0.0 0.00 0.00 0.00 89 1013.9
20260904075341 77 280 0.0 0.0 0.00 0.00 0.00 88 1013.8
20260904074840 77 280 0.0 0.0 0.00 0.00 0.00 88 1013.8
20260904074341 77 280 0.0 0.0 0.00 0.00 0.00 88 1013.7
20260904073840 77 280 0.0 0.0 0.00 0.00 0.00 88 1013.7
20260904073340 77 280 0.0 0.0 0.00 0.00 0.00 88 1013.7
20260904072840 78 280 0.0 0.0 0.00 0.00 0.00 88 1013.8
20260904072340 78 280 0.0 0.0 0.00 0.00 0.00 88 1013.9
20260904071841 78 280 0.0 0.0 0.00 0.00 0.00 87 1014.0
20260904071340 78 280 0.0 0.0 0.00 0.00 0.00 87 1014.0
20260904070840 78 280 0.0 0.0 0.00 0.00 0.00 87 1014.0
20260904070341 78 280 0.0 0.0 0.00 0.00 0.00 87 1014.1
20260904065840 78 280 0.0 0.0 0.00 0.00 0.00 87 1014.0
20260904065340 78 280 0.0 0.0 0.00 0.00 0.00 87 1013.9
20260904064840 78 280 0.0 0.0 0.00 0.00 0.00 87 1013.9
20260904064340 78 280 0.0 0.0 0.00 0.00 0.00 87 1013.9
20260904063340 78 279 0.0 0.0 0.00 0.00 0.00 86 1014.0
20260904062840 78 279 0.0 0.0 0.00 0.00 0.00 86 1014.1
20260904061840 79 279 0.0 0.0 0.00 0.00 0.00 85 1014.1
20260904061340 79 279 0.0 2.0 0.00 0.00 0.00 85 1014.0
20260904060840 79 279 0.0 2.0 0.00 0.00 0.00 85 1014.1
20260904060340 79 261 0.0 0.0 0.00 0.00 0.00 84 1014.2
20260904055340 79 148 0.0 0.0 0.00 0.00 0.00 84 1014.1
20260904054840 79 148 0.0 0.0 0.00 0.00 0.00 84 1014.1
20260904054340 79 148 0.0 0.0 0.00 0.00 0.00 84 1014.2
20260904053840 79 148 0.0 0.0 0.00 0.00 0.00 83 1014.2
20260904053340 80 148 0.0 0.0 0.00 0.00 0.00 83 1014.2
20260904052840 80 148 0.0 0.0 0.00 0.00 0.00 83 1014.2
20260904052340 80 148 0.0 0.0 0.00 0.00 0.00 83 1014.1
20260904051840 80 148 0.0 0.0 0.00 0.00 0.00 82 1014.2
20260904051340 80 148 0.0 0.0 0.00 0.00 0.00 82 1014.1
20260904050840 80 148 0.0 0.0 0.00 0.00 0.00 82 1014.1
20260904050340 80 148 0.0 0.0 0.00 0.00 0.00 81 1014.0
20260904045910 81 148 0.0 0.0 0.00 0.00 0.00 81 1014.0
20260904045410 81 148 0.0 0.0 0.00 0.00 0.00 80 1013.8
20260904044910 81 148 0.0 0.0 0.00 0.00 0.00 80 1013.9
20260904043910 81 148 0.0 0.0 0.00 0.00 0.00 80 1014.0
20260904043410 81 148 0.0 0.0 0.00 0.00 0.00 79 1014.0
20260904042910 81 148 0.0 0.0 0.00 0.00 0.00 79 1014.1